Hourly Data Report for October 07, 2014

All times are specified in Local Standard Time (LST). Add 1 hour to adjust for Daylight Saving Time where and when it is observed.

IQALUIT CLIMATE
NUNAVUT

63°44'50.000" N
68°32'40.000" W
33.50 m
2402592
71321
XFB

Download Data

Hourly Data (October 2014)
Hourly Data Report for October 7, 2014
Temp Definition
°C
Dew Point Temp Definition
°C
Rel Hum Definition
%
Wind Dir Definition
10's deg

Wind Spd Definition
km/h
Visibility Definition
km
Stn Press Definition
kPa
Hmdx Definition


Wind Chill Definition


Weather Definition


TIME
00:00 0.9 -1.0 87 14 8   101.62     LegendNANA
01:00 0.0 -1.3 91 1 5   101.63   -2 LegendNANA
02:00 0.5 -1.7 85 10 6   101.62     LegendNANA
03:00 0.6 -2.1 83 13 6   101.62     LegendNANA
04:00 0.9 -2.2 80 12 9   101.64     LegendNANA
05:00 1.2 -2.4 77 11 7   101.64     LegendNANA
06:00 1.4 -2.5 75 10 13   101.66     LegendNANA
07:00 0.6 -1.5 85 16 7   101.70     LegendNANA
08:00 1.2 -1.9 79 13 10   101.75     LegendNANA
09:00 1.7 -2.2 75 13 14   101.77     LegendNANA
10:00 1.4 -1.2 82 15 7   101.75     LegendNANA
11:00 1.6 -1.6 79 15 4   101.74     LegendNANA
12:00 1.7 -1.7 79 15 4   101.74     LegendNANA
13:00 2.0 -2.4 73 16 2   101.74     LegendNANA
14:00 2.1 -2.6 71 15 4   101.75     LegendNANA
15:00 1.8 -2.4 74 15 4   101.76     LegendNANA
16:00 1.4 -2.3 76 14 2   101.76     LegendNANA
17:00 0.8 -2.5 79 16 2   101.76     LegendNANA
18:00 -0.1 -1.9 87 4 3   101.78   -1 LegendNANA
19:00 0.3 -2.1 84 11 2   101.76     LegendNANA
20:00 0.6 -2.0 83 12 10   101.73     LegendNANA
21:00 0.9 -2.1 81 11 8   101.74     LegendNANA
22:00 0.9 -2.0 81 13 9   101.70     LegendNANA
23:00 0.8 -1.9 82 13 6   101.69     LegendNANA

Notes on Data Quality.

Legend

  • E = Estimated
  • M = Missing
  • NA = Not Available
  • ‡ = Partner data that is not subject to review by the National Climate Archives
Date modified: